Regional Weather Roundup
Issued by NWS Charleston, SC

Current Version | Previous Version | Graphics & Text | Print | Product List | Glossary On
Versions: 1 2 3 4 5 6 7 8 9 10 11 12 13 14 15 16 17 18 19 20 21 22 23 24 25 26 27 28 29 30 31 32 33 34 35 36 37 38 39 40 41 42 43 44 45 46 47 48 49 50
000 ASUS42 KCHS 050713 RWRCHS REGIONAL WEATHER ROUNDUP NATIONAL WEATHER SERVICE CHARLESTON SC 300 AM EDT THU MAY 05 2016 NOTE: "FAIR" INDICATES FEW OR NO CLOUDS BELOW 12,000 FEET WITH NO SIGNIFICANT WEATHER AND/OR OBSTRUCTIONS TO VISIBILITY. NOT ALL STATIONS ARE QUALITY CONTROLLED. USE DATA WITH CAUTION... ESPECIALLY DEWPOINT OBSERVATIONS. SCZ027-030-031-034>040-042>050-050800- ...SOUTHEAST SOUTH CAROLINA... CITY SKY/WX TMP DP RH WIND PRES REMARKS N CHARLESTON CLEAR 60 48 64 W7 29.60F WATERFRONT PRK N/A 64 50 60 NW5 29.60F MOUNT PLEASANT FAIR 61 50 67 CALM 29.59F JOHNS ISLAND FAIR 59 50 72 CALM 29.61F PINOPOLIS N/A 66 52 59 W7 29.53F MONCKS CORNER FAIR 52 45 76 CALM 29.60F SUMMERVILLE FAIR 54 50 87 CALM 29.61F BEAUFORT MCAS CLEAR 61 48 62 W9 29.63F BEAUFORT ARPT FAIR 63 46 55 W5 29.62F HILTON HEAD IS CLEAR 63 48 59 W6 29.64F WALTERBORO SUNNY 59 50 72 W7 29.63F ALLENDALE FAIR 59 48 67 CALM 29.62F ...SOUTHERN MIDLANDS AND PEE DEE... CITY SKY/WX TMP DP RH WIND PRES REMARKS GEORGETOWN FAIR 57 46 67 W3 29.59F KINGSTREE FAIR 52 50 93 CALM 29.58F ORANGEBURG CLEAR 58 47 66 W8 29.61F BARNWELL FAIR 55 52 88 CALM 29.63F AIKEN FAIR 55 45 67 NW6 29.65F MANNING FAIR 50 48 93 CALM 29.59F COLUMBIA CLEAR 58 46 64 W7 29.60F SUMTER PTCLDY 58 47 67 W8 29.56F FLORENCE CLEAR 57 50 77 CALM 29.57F MYRTLE BEACH PTCLDY 61 46 59 W5 29.59F N MYRTLE BEACH MOCLDY 60 51 72 W6 29.56F $$ GAZ063-065-086>088-099>101-113>116-118-119-134>141-150-050800- ...SOUTHEAST GEORGIA... CITY SKY/WX TMP DP RH WIND PRES REMARKS SAVANNAH ARPT CLEAR 59 48 67 W9 29.65F HUNTER AAF PTCLDY 56 50 80 W8 29.62F FORT STEWART CLEAR 60 47 62 W8 29.63F STATESBORO CLEAR 61 54 76 W3 29.65F SYLVANIA SUNNY 56 53 88 CALM 29.65F CLAXTON FAIR 58 52 78 W5 29.66F ...CSRA...CENTRAL AND FAR SOUTHEAST GEORGIA... CITY SKY/WX TMP DP RH WIND PRES REMARKS THOMSON MOCLDY 59 53 81 W9 29.70S AUGUSTA-BUSH PTCLDY 60 48 64 W10 29.62F AUGUSTA-DANIEL CLOUDY 60 46 59 W9 29.63F SWAINSBORO FAIR 55 50 82 W5 29.67F VIDALIA CLEAR 59 48 67 CALM 29.67F EASTMAN FAIR 59 50 71 NW7 29.72F HAZLEHURST FAIR 58 51 75 CALM 29.67F ALMA CLEAR 59 50 72 NW6 29.69F WAYCROSS CLEAR 59 50 72 W5 29.69F JESUP FAIR 61 52 72 NW7 29.67F BAXLEY FAIR 61 50 67 NW8G16 29.68S BRUNSWICK CLEAR 64 54 68 W5 29.68F SAINT SIMONS CLEAR 62 49 62 W6 29.67F $$ SCZ027-028-034-036>038-045-046-048>050-GAZ119-141-050800- ...LAKE AND SUPPLEMENTAL COASTAL OBSERVATIONS... STATION/POSITION TIME TEMP WIND PRES WAVE SWELL AIR SEA DIR/SP/G HT/PER HT/PER/DIR (UTC) (F) (DEG/KT/KT) (MB) (FT/S) (FT/S/D) WINYAH BAY 0545 60 290/ 2 1002.0 LAKE MURRAY 0600 60 300/ 4/ 11 1003.0S ACE BASIN NERRS NOT AVBL FORT PULASKI 0600 66 75 280/ 12/ 14 1004.3F SAPELO ISLAND 0600 63 310/ 8 1005.0S $$ ANZ835-935-AMZ111-154-330-350-352-354-370-450-454-472-050800- ...C-MAN AND BUOY OBSERVATIONS... STATION/POSITION TIME TEMP WIND PRES WAVE SWELL AIR SEA DIR/SP/G HT/PER HT/PER/DIR (UTC) (F) (DEG/KT/KT) (MB) (FT/S) (FT/S/D) BUOY 41004 0650 71 74 330/ 16/ 19 1001.4F 4/ 4 2/ 8 BUOY 41008 NOT AVBL FOLLY BEACH CMAN 0700 59 270/ 3/ 4 1002.4F CAPERS NEARSHORE 0608 67 71 310/ 14/ 19 1002.5F FRIPP NEARSHORE 0608 68 71 320/ 12/ 14 1003.0F STATION/POSITION TIME TEMP WIND PRES WAVE SWELL AIR SEA DIR/SP/G HT/PER HT/PER/DIR (UTC) (F) (DEG/KT/KT) (MB) (FT/S) (FT/S/D) 5E ST. MARYS GA 0621 71 N/A 3/ 7 FRYING PAN BUOY 0600 70 71 300/ 14/ 16 1000.8F BUOY 41025 0650 62 70 20/ 16/ 17 1000.1F 4/ 5 2/160/ 8 CAPE LOOKOUT NC 0700 63 40/ 15/ 17 1000.0F BUOY 41002 0650 72 73 160/ 17/ 19 1000.0F 5/ 7 2/180/ 8 BUOY 41010 0620 71 79 310/ 17/ 21 1000.9F ST AUGUSTINE FL 0700 61 70 290/ 9/ 11 1006.0R $$

USA.gov is the U.S. government's official web portal to all federal, state and local government web resources and services.